This demonstration page uses our WeatherBlox Daily Observations layout. Learn more.

Left ArrowRight Arrow

Hourly Observations for March 21, 2021

Temp ( °F °C ) Dew Point ( °F °C ) Humidity (%) Winds ( mph kmh ) Pressure ( in mb ) Visibility ( mi km ) Precip ( " mm )
12:53 am 00:53 Clear 46 7.8 25 -3.9 44 44 NE 6 9 30.35 1028 10 16 0.00 0.00
1:53 am 01:53 Cloudy 48 8.9 26 -3.3 42 42 ENE 6 9 30.33 1027 10 16 0.00 0.00
2:53 am 02:53 Cloudy 50 10 28 -2.2 43 43 ENE 12 19 30.32 1027 10 16 0.00 0.00
3:53 am 03:53 Cloudy 50 10 29 -1.7 44 44 ENE 10 17 30.29 1026 10 16 0.00 0.00
4:29 am 04:29 Cloudy 49 9.4 30 -1.1 48 48 E 13 20 30.30 1026 10 16 0.00 0.00
4:53 am 04:53 Cloudy 49 9.4 30 -1.1 48 48 ENE 12 19 30.29 1026 10 16 0.00 0.00
5:53 am 05:53 Cloudy 48 8.9 34 1.1 58 58 E 8 13 30.30 1026 10 16 0.00 0.00
6:04 am 06:04 Cloudy 47 8.3 35 1.7 63 63 ENE 16 26 30.33 1027 10 16 0.00 0.00
6:53 am 06:53 Cloudy 47 8.3 36 2.2 66 66 ENE 12 19 30.32 1027 10 16 0.00 0.00
7:53 am 07:53 Cloudy 47 8.3 35 1.7 63 63 ENE 13 20 30.32 1027 10 16 0.00 0.00
8:53 am 08:53 Cloudy 48 8.9 35 1.7 61 61 NE 13 20 30.33 1027 10 16 0.00 0.00
9:27 am 09:27 Cloudy 51 10.6 35 1.7 54 54 ENE 15 24 30.34 1027 10 16 0.00 0.00
9:53 am 09:53 Partly Cloudy 51 10.6 35 1.7 54 54 NE 17 28 30.33 1027 10 16 0.00 0.00
10:11 am 10:11 Mostly Cloudy 52 11.1 36 2.2 55 55 NE 15 24 30.34 1027 10 16 0.00 0.00
10:53 am 10:53 Partly Cloudy 54 12.2 36 2.2 51 51 E 17 28 30.33 1027 10 16 0.00 0.00
11:53 am 11:53 Mostly Cloudy 57 13.9 37 2.8 47 47 ENE 12 19 30.32 1027 10 16 0.00 0.00
12:53 pm 12:53 Cloudy 59 15 39 3.9 48 48 NE 16 26 30.31 1027 10 16 0.00 0.00
1:53 pm 13:53 Cloudy 63 17.2 40 4.4 43 43 ENE 13 20 30.28 1026 10 16 0.00 0.00
2:53 pm 14:53 Partly Cloudy 65 18.3 41 5 42 42 ENE 15 24 30.25 1024 10 16 0.00 0.00
3:53 pm 15:53 Cloudy 65 18.3 42 5.6 43 43 E 10 17 30.24 1024 10 16 0.00 0.00
4:53 pm 16:53 Mostly Cloudy 66 18.9 42 5.6 42 42 E 6 9 30.23 1024 10 16 0.00 0.00
5:53 pm 17:53 Cloudy 65 18.3 42 5.6 43 43 E 10 17 30.22 1024 10 16 0.00 0.00
6:53 pm 18:53 Cloudy 63 17.2 42 5.6 47 47 E 12 19 30.24 1024 10 16 0.00 0.00
7:53 pm 19:53 Cloudy 60 15.6 44 6.7 56 56 ENE 14 22 30.25 1024 10 16 0.00 0.00
8:53 pm 20:53 Cloudy 58 14.4 42 5.6 56 56 ENE 9 15 30.25 1024 10 16 0.00 0.00
9:53 pm 21:53 Mostly Cloudy 57 13.9 41 5 55 55 Calm 30.25 1024 10 16 0.00 0.00
10:53 pm 22:53 Clear 52 11.1 41 5 66 66 Calm 30.24 1024 10 16 0.00 0.00
11:53 pm 23:53 Clear 49 9.4 42 5.6 77 77 Calm 30.24 1024 10 16 0.00 0.00

Powered by AerisWeather